sat.trackr.live / text

‹ back to catalog

STARLINK-30883

NORAD 58252 · 2023-171Y

PAYLOAD ACTIVE UNKNOWN

§ Identity

Operator
Country
US
Launch date
2023-11-08
Launch site
AFETR
Launch vehicle
Mass (kg)
RCS (m²)

Purposes: comms

External: N2YO · Heavens-Above · Gunter

§ Orbital elements

Epoch: 2026-05-24T21:51:27.967104Z

Period
94.27 min
Inclination
42.9995°
Eccentricity
0.0000036
Mean motion
15.27572160 rev/d
Perigee alt
483.0 km
Apogee alt
483.1 km
Semi-major
6,861.2 km
B*
-3.0712e-4
RAAN
214.5862°
Arg perigee
52.6593°
Mean anomaly
307.4262°
Rev number
14,139

§ Raw data

STARLINK-308831 58252U 23171Y   26144.91074036 -.00008700  00000+0 -30712-3 0  99952 58252  42.9995 214.5862 0000036  52.6593 307.4262 15.27572160141397

JSON: /api/v1/satellites/58252 · /tle

For live sub-satellite position, see the globe view (requires WebGL).

§ Visibility from observer

Set your observer location to see the next 7 days of passes ≥ 10°. The values pass through the URL so the page stays shareable.

No JS? Fill the form by hand. The geolocation button needs JavaScript.